• In France
  • List of Countries
  • For 7 days
  • Water Temperature
  • Satellite Maps
  • Weather Map
  • Weather Widgets
  • user-avatar
    Login

    Hourly Weather Makoua

    Today, 21 May, Monday

    Time Temperature Precipitation Wind Pressure Humidity
    00:00 +24°C° 0 mm 1 mps 726 mmHg 96%
    01:00 +23°C° 0 mm 1 mps 726 mmHg 97%
    02:00 +23°C° 0 mm 1 mps 726 mmHg 96%
    03:00 +21°C° 0 mm 0 mps 726 mmHg 96%
    04:00 +21°C° 0 mm 0 mps 726 mmHg 96%
    05:00 +21°C° 0 mm 0 mps 726 mmHg 94%
    06:00 +21°C° 0 mm 0 mps 726 mmHg 93%
    07:00 +22°C° 0 mm 0 mps 726 mmHg 91%
    08:00 +26°C° 0 mm 1 mps 727 mmHg 79%
    09:00 +29°C° 0 mm 1 mps 727 mmHg 66%
    10:00 +32°C° 0 mm 1 mps 727 mmHg 53%
    11:00 +33°C° 0 mm 1 mps 727 mmHg 49%
    12:00 +34°C° 0 mm 1 mps 727 mmHg 44%
    13:00 +36°C° 0 mm 1 mps 726 mmHg 39%
    14:00 +35°C° 0 mm 1 mps 726 mmHg 44%
    15:00 +34°C° 0 mm 1 mps 725 mmHg 49%
    16:00 +30°C° 0 mm 0 mps 724 mmHg 54%
    17:00 +31°C° 0 mm 1 mps 724 mmHg 59%
    18:00 +29°C° 0 mm 1 mps 725 mmHg 65%
    19:00 +28°C° 0 mm 1 mps 725 mmHg 70%
    20:00 +27°C° 0.3 mm 1 mps 725 mmHg 76%
    21:00 +26°C° 0.3 mm 1 mps 726 mmHg 83%
    22:00 +25°C° 0.3 mm 1 mps 726 mmHg 89%
    23:00 +24°C° 0 mm 1 mps 726 mmHg 90%

    Tomorrow, 22 May, Tuesday

    Time Temperature Precipitation Wind Pressure Humidity
    00:00 +24°C° 0 mm 1 mps 726 mmHg 91%
    01:00 +24°C° 0 mm 1 mps 726 mmHg 92%
    02:00 +24°C° 0 mm 1 mps 726 mmHg 92%
    03:00 +24°C° 0 mm 1 mps 726 mmHg 93%
    04:00 +23°C° 0 mm 1 mps 726 mmHg 93%
    05:00 +24°C° 0 mm 1 mps 726 mmHg 91%
    06:00 +24°C° 0 mm 1 mps 726 mmHg 90%
    07:00 +25°C° 0 mm 1 mps 727 mmHg 88%
    08:00 +27°C° 0 mm 1 mps 727 mmHg 78%
    09:00 +29°C° 0 mm 1 mps 728 mmHg 68%
    10:00 +32°C° 0 mm 1 mps 728 mmHg 58%
    11:00 +33°C° 0 mm 1 mps 728 mmHg 54%
    12:00 +34°C° 0 mm 1 mps 727 mmHg 50%
    13:00 +35°C° 0 mm 1 mps 726 mmHg 46%
    14:00 +34°C° 0 mm 1 mps 726 mmHg 48%
    15:00 +32°C° 0 mm 0 mps 725 mmHg 49%
    16:00 +31°C° 0 mm 0 mps 725 mmHg 51%
    17:00 +29°C° 0 mm 0 mps 725 mmHg 57%
    18:00 +28°C° 0 mm 0 mps 726 mmHg 62%
    19:00 +26°C° 0 mm 0 mps 726 mmHg 68%
    20:00 +25°C° 0.1 mm 0 mps 726 mmHg 71%
    21:00 +25°C° 0.1 mm 0 mps 727 mmHg 74%
    22:00 +24°C° 0.1 mm 0 mps 728 mmHg 77%
    23:00 +24°C° 0 mm 0 mps 727 mmHg 79%

    Day after tomorrow, 23 May, Wednesday

    Time Temperature Precipitation Wind Pressure Humidity
    00:00 +23°C° 0 mm 0 mps 727 mmHg 81%
    01:00 +23°C° 0 mm 0 mps 727 mmHg 82%
    02:00 +22°C° 0 mm 0 mps 726 mmHg 84%
    03:00 +22°C° 0 mm 0 mps 726 mmHg 86%
    04:00 +22°C° 0 mm 0 mps 726 mmHg 88%
    05:00 +22°C° 0 mm 0 mps 727 mmHg 87%
    06:00 +23°C° 0 mm 0 mps 727 mmHg 85%
    07:00 +23°C° 0 mm 0 mps 728 mmHg 83%
    08:00 +26°C° 0 mm 0 mps 728 mmHg 73%
    09:00 +29°C° 0 mm 0 mps 729 mmHg 63%
    10:00 +33°C° 0 mm 1 mps 729 mmHg 53%
    11:00 +34°C° 0 mm 1 mps 728 mmHg 50%
    12:00 +35°C° 0 mm 1 mps 728 mmHg 46%
    13:00 +36°C° 0 mm 1 mps 727 mmHg 43%
    14:00 +36°C° 0 mm 1 mps 726 mmHg 44%
    15:00 +35°C° 0 mm 1 mps 726 mmHg 44%
    16:00 +35°C° 0 mm 1 mps 725 mmHg 45%
    17:00 +33°C° 0 mm 1 mps 726 mmHg 52%
    18:00 +29°C° 0 mm 0 mps 726 mmHg 58%
    19:00 +27°C° 0 mm 0 mps 726 mmHg 65%
    20:00 +26°C° 0.2 mm 0 mps 727 mmHg 70%
    21:00 +27°C° 0.2 mm 1 mps 727 mmHg 75%
    22:00 +27°C° 0.2 mm 1 mps 727 mmHg 80%
    23:00 +26°C° 0.2 mm 1 mps 727 mmHg 83%

    24 May, Thursday

    Time Temperature Precipitation Wind Pressure Humidity
    00:00 +24°C° 0.2 mm 0 mps 727 mmHg 86%
    01:00 +23°C° 0.2 mm 0 mps 727 mmHg 89%
    02:00 +23°C° 0.1 mm 0 mps 727 mmHg 90%
    03:00 +23°C° 0.1 mm 0 mps 726 mmHg 92%
    04:00 +22°C° 0.1 mm 0 mps 726 mmHg 93%
    05:00 +23°C° 0.3 mm 0 mps 727 mmHg 93%
    06:00 +23°C° 0.3 mm 0 mps 727 mmHg 93%
    07:00 +23°C° 0.3 mm 0 mps 728 mmHg 93%
    08:00 +25°C° 0.6 mm 0 mps 728 mmHg 83%
    09:00 +28°C° 0.6 mm 0 mps 728 mmHg 73%
    10:00 +32°C° 0.6 mm 1 mps 729 mmHg 63%
    11:00 +33°C° 0 mm 1 mps 728 mmHg 57%
    12:00 +35°C° 0 mm 1 mps 727 mmHg 51%
    13:00 +36°C° 0 mm 1 mps 726 mmHg 45%
    14:00 +35°C° 0 mm 1 mps 725 mmHg 47%
    15:00 +35°C° 0 mm 1 mps 725 mmHg 48%
    16:00 +34°C° 0 mm 1 mps 724 mmHg 50%
    17:00 +32°C° 0 mm 1 mps 725 mmHg 57%
    18:00 +30°C° 0 mm 1 mps 725 mmHg 65%
    19:00 +28°C° 0 mm 1 mps 725 mmHg 72%
    20:00 +27°C° 0.9 mm 1 mps 726 mmHg 78%
    21:00 +27°C° 0.9 mm 1 mps 726 mmHg 84%
    22:00 +26°C° 0.9 mm 1 mps 727 mmHg 90%
    23:00 +25°C° 0.3 mm 1 mps 726 mmHg 91%

    25 May, Friday

    Time Temperature Precipitation Wind Pressure Humidity
    00:00 +25°C° 0.3 mm 1 mps 726 mmHg 92%
    01:00 +25°C° 0.3 mm 1 mps 726 mmHg 94%
    02:00 +24°C° 0.3 mm 1 mps 725 mmHg 94%
    03:00 +24°C° 0.3 mm 1 mps 725 mmHg 95%
    04:00 +24°C° 0.3 mm 1 mps 725 mmHg 95%
    05:00 +24°C° 0.2 mm 1 mps 725 mmHg 94%
    06:00 +25°C° 0.2 mm 1 mps 726 mmHg 93%
    07:00 +25°C° 0.2 mm 1 mps 726 mmHg 92%
    08:00 +27°C° 0.4 mm 1 mps 727 mmHg 83%
    09:00 +29°C° 0.4 mm 1 mps 727 mmHg 75%
    10:00 +31°C° 0.4 mm 1 mps 727 mmHg 66%
    11:00 +32°C° 0.8 mm 1 mps 726 mmHg 64%
    12:00 +32°C° 0.8 mm 1 mps 726 mmHg 62%
    13:00 +33°C° 0.8 mm 1 mps 725 mmHg 61%
    14:00 +32°C° 1.3 mm 1 mps 725 mmHg 67%
    15:00 +31°C° 1.3 mm 1 mps 724 mmHg 72%
    16:00 +30°C° 1.3 mm 1 mps 724 mmHg 78%
    17:00 +28°C° 0.5 mm 1 mps 724 mmHg 82%
    18:00 +27°C° 0.5 mm 1 mps 725 mmHg 86%
    19:00 +24°C° 0.5 mm 0 mps 725 mmHg 90%
    20:00 +26°C° 0.4 mm 1 mps 726 mmHg 91%
    21:00 +25°C° 0.4 mm 1 mps 726 mmHg 92%
    22:00 +25°C° 0.4 mm 1 mps 727 mmHg 92%
    23:00 +25°C° 0.7 mm 1 mps 726 mmHg 93%

    26 May, Saturday

    Time Temperature Precipitation Wind Pressure Humidity
    00:00 +24°C° 0.7 mm 1 mps 726 mmHg 94%
    01:00 +24°C° 0.7 mm 1 mps 725 mmHg 95%
    02:00 +24°C° 0.7 mm 1 mps 725 mmHg 95%
    03:00 +24°C° 0.7 mm 1 mps 725 mmHg 96%
    04:00 +24°C° 0.7 mm 1 mps 725 mmHg 96%
    05:00 +24°C° 0.1 mm 1 mps 726 mmHg 95%
    06:00 +24°C° 0.1 mm 1 mps 726 mmHg 95%
    07:00 +22°C° 0.1 mm 0 mps 727 mmHg 94%
    08:00 +25°C° 0.1 mm 1 mps 727 mmHg 91%
    09:00 +26°C° 0.1 mm 1 mps 727 mmHg 87%
    10:00 +27°C° 0.1 mm 1 mps 728 mmHg 83%
    11:00 +29°C° 0 mm 1 mps 727 mmHg 75%
    12:00 +30°C° 0 mm 1 mps 726 mmHg 67%
    13:00 +32°C° 0 mm 1 mps 725 mmHg 58%
    14:00 +32°C° 0 mm 1 mps 725 mmHg 59%
    15:00 +31°C° 0 mm 1 mps 725 mmHg 60%
    16:00 +29°C° 0 mm 0 mps 724 mmHg 61%
    17:00 +29°C° 0.2 mm 1 mps 725 mmHg 69%
    18:00 +28°C° 0.2 mm 1 mps 725 mmHg 76%
    19:00 +26°C° 0.2 mm 1 mps 726 mmHg 84%
    20:00 +24°C° 0.2 mm 0 mps 726 mmHg 86%
    21:00 +24°C° 0.2 mm 0 mps 727 mmHg 88%
    22:00 +23°C° 0.2 mm 0 mps 727 mmHg 90%
    23:00 +23°C° 0.2 mm 0 mps 727 mmHg 91%
    Show more